TimeAKDT,TemperatureF,Dew PointF,Humidity,Sea Level PressureIn,VisibilityMPH,Wind Direction,Wind SpeedMPH,Gust SpeedMPH,PrecipitationIn,Events,Conditions,WindDirDegrees,DateUTC
12:16 AM,42.8,39.2,87,29.14,10.0,East,3.5,-,N/A,,Partly Cloudy,90,2012-10-16 08:16:00
12:36 AM,42.8,39.2,87,29.15,10.0,ESE,5.8,-,N/A,,Clear,120,2012-10-16 08:36:00
12:56 AM,42.8,39.2,87,29.16,10.0,SE,4.6,-,N/A,,Clear,130,2012-10-16 08:56:00
1:16 AM,42.8,39.2,87,29.17,10.0,East,4.6,-,N/A,,Clear,100,2012-10-16 09:16:00
1:36 AM,42.8,39.2,87,29.18,10.0,ESE,4.6,-,N/A,,Clear,110,2012-10-16 09:36:00
1:56 AM,42.8,39.2,87,29.20,10.0,ESE,4.6,-,N/A,,Scattered Clouds,120,2012-10-16 09:56:00
2:16 AM,42.8,37.4,81,29.21,10.0,ESE,6.9,-,N/A,,Overcast,120,2012-10-16 10:16:00
2:36 AM,42.8,37.4,81,29.22,10.0,ESE,8.1,-,N/A,,Overcast,110,2012-10-16 10:36:00
2:56 AM,42.8,37.4,81,29.23,10.0,East,8.1,-,N/A,,Overcast,90,2012-10-16 10:56:00
3:16 AM,42.8,37.4,81,29.25,10.0,ESE,6.9,-,N/A,,Overcast,120,2012-10-16 11:16:00
3:36 AM,42.8,37.4,81,29.26,10.0,ESE,6.9,-,N/A,,Overcast,110,2012-10-16 11:36:00
3:56 AM,42.8,37.4,81,29.27,10.0,East,9.2,-,N/A,,Overcast,90,2012-10-16 11:56:00
4:16 AM,42.8,37.4,81,29.28,10.0,East,6.9,-,N/A,,Overcast,90,2012-10-16 12:16:00
4:36 AM,42.8,39.2,87,29.28,10.0,East,8.1,-,N/A,,Overcast,100,2012-10-16 12:36:00
4:56 AM,42.8,39.2,87,29.29,10.0,ESE,6.9,-,N/A,,Overcast,110,2012-10-16 12:56:00
5:16 AM,42.8,39.2,87,29.30,10.0,ESE,6.9,-,N/A,,Overcast,120,2012-10-16 13:16:00
5:36 AM,42.8,39.2,87,29.32,10.0,SSE,8.1,-,N/A,,Overcast,150,2012-10-16 13:36:00
5:56 AM,42.8,39.2,87,29.33,10.0,SE,8.1,-,N/A,,Overcast,140,2012-10-16 13:56:00
6:16 AM,42.8,39.2,87,29.34,10.0,SE,8.1,-,N/A,,Overcast,140,2012-10-16 14:16:00
6:36 AM,42.8,39.2,87,29.35,10.0,SE,9.2,-,N/A,,Mostly Cloudy,140,2012-10-16 14:36:00
6:56 AM,42.8,37.4,81,29.36,10.0,SE,10.4,-,N/A,,Mostly Cloudy,140,2012-10-16 14:56:00
7:16 AM,42.8,37.4,81,29.38,10.0,ESE,5.8,-,N/A,,Mostly Cloudy,120,2012-10-16 15:16:00
7:36 AM,41.0,37.4,87,29.39,10.0,ESE,6.9,-,N/A,,Partly Cloudy,110,2012-10-16 15:36:00
7:56 AM,41.0,37.4,87,29.41,10.0,ESE,6.9,-,N/A,,Partly Cloudy,110,2012-10-16 15:56:00
8:16 AM,41.0,37.4,87,29.42,10.0,ESE,6.9,-,N/A,,Partly Cloudy,120,2012-10-16 16:16:00
8:36 AM,42.8,37.4,81,29.44,10.0,SE,6.9,-,N/A,,Clear,130,2012-10-16 16:36:00
8:56 AM,42.8,37.4,81,29.45,10.0,SE,8.1,-,N/A,,Clear,130,2012-10-16 16:56:00
9:16 AM,42.8,37.4,81,29.46,10.0,SE,6.9,-,N/A,,Clear,130,2012-10-16 17:16:00
9:36 AM,42.8,37.4,81,29.47,10.0,ESE,8.1,-,N/A,,Clear,110,2012-10-16 17:36:00
9:56 AM,42.8,39.2,87,29.49,10.0,SE,9.2,-,N/A,,Partly Cloudy,140,2012-10-16 17:56:00
10:16 AM,42.8,37.4,81,29.50,10.0,SSE,10.4,-,N/A,,Scattered Clouds,150,2012-10-16 18:16:00
10:36 AM,42.8,37.4,81,29.52,10.0,SSE,10.4,-,N/A,,Mostly Cloudy,150,2012-10-16 18:36:00
10:56 AM,42.8,37.4,81,29.54,10.0,SSE,9.2,-,N/A,,Overcast,150,2012-10-16 18:56:00
11:16 AM,42.8,37.4,81,29.55,10.0,SSE,9.2,-,N/A,,Overcast,150,2012-10-16 19:16:00
11:36 AM,42.8,37.4,81,29.57,10.0,SE,6.9,-,N/A,,Overcast,140,2012-10-16 19:36:00
11:56 AM,42.8,37.4,81,29.58,10.0,SE,8.1,-,N/A,,Overcast,140,2012-10-16 19:56:00
12:16 PM,42.8,37.4,81,29.59,10.0,SE,8.1,-,N/A,,Overcast,130,2012-10-16 20:16:00
12:36 PM,44.6,39.2,81,29.60,10.0,SE,12.7,-,N/A,,Overcast,140,2012-10-16 20:36:00
12:56 PM,44.6,39.2,81,29.61,10.0,SE,11.5,-,N/A,,Overcast,140,2012-10-16 20:56:00
1:16 PM,44.6,39.2,81,29.62,10.0,SE,11.5,-,N/A,,Overcast,140,2012-10-16 21:16:00
1:56 PM,44.6,39.2,81,29.64,10.0,SSE,12.7,-,N/A,,Overcast,150,2012-10-16 21:56:00
2:16 PM,44.6,37.4,76,29.66,10.0,SE,12.7,18.4,N/A,,Overcast,140,2012-10-16 22:16:00
2:36 PM,44.6,37.4,76,29.66,10.0,SE,12.7,19.6,N/A,,Overcast,140,2012-10-16 22:36:00
2:56 PM,44.6,37.4,76,29.68,10.0,SE,11.5,18.4,N/A,,Overcast,140,2012-10-16 22:56:00
3:16 PM,44.6,39.2,81,29.69,10.0,SE,11.5,17.3,N/A,,Overcast,140,2012-10-16 23:16:00
3:36 PM,44.6,39.2,81,29.69,10.0,SE,12.7,17.3,N/A,,Overcast,140,2012-10-16 23:36:00
3:56 PM,44.6,37.4,76,29.70,10.0,SE,16.1,20.7,N/A,,Overcast,140,2012-10-16 23:56:00
4:16 PM,44.6,37.4,76,29.71,10.0,SE,13.8,19.6,N/A,,Mostly Cloudy,140,2012-10-17 00:16:00
4:36 PM,44.6,37.4,76,29.73,10.0,SE,13.8,-,N/A,,Overcast,140,2012-10-17 00:36:00
4:56 PM,44.6,37.4,76,29.74,10.0,SE,13.8,18.4,N/A,,Mostly Cloudy,140,2012-10-17 00:56:00
5:16 PM,44.6,37.4,76,29.75,10.0,SE,10.4,-,N/A,,Overcast,130,2012-10-17 01:16:00
5:36 PM,42.8,39.2,87,29.76,10.0,SE,8.1,-,N/A,,Overcast,130,2012-10-17 01:36:00
5:56 PM,42.8,39.2,87,29.77,10.0,SE,8.1,-,N/A,,Overcast,140,2012-10-17 01:56:00
6:16 PM,42.8,39.2,87,29.79,10.0,SE,8.1,-,N/A,,Overcast,130,2012-10-17 02:16:00
6:36 PM,42.8,37.4,81,29.80,10.0,SSE,9.2,-,N/A,,Overcast,150,2012-10-17 02:36:00
6:56 PM,44.6,37.4,76,29.81,10.0,South,8.1,-,N/A,,Overcast,180,2012-10-17 02:56:00
7:16 PM,42.8,37.4,81,29.82,10.0,SE,6.9,-,N/A,,Overcast,130,2012-10-17 03:16:00
7:36 PM,42.8,37.4,81,29.84,10.0,SE,6.9,-,N/A,,Overcast,140,2012-10-17 03:36:00
7:56 PM,42.8,37.4,81,29.84,10.0,SSE,3.5,-,N/A,,Overcast,160,2012-10-17 03:56:00
8:16 PM,42.8,37.4,81,29.86,10.0,SE,5.8,-,N/A,,Overcast,140,2012-10-17 04:16:00
8:36 PM,42.8,37.4,81,29.87,10.0,SSW,9.2,-,N/A,,Overcast,200,2012-10-17 04:36:00
8:56 PM,44.6,35.6,71,29.88,10.0,South,5.8,-,N/A,,Overcast,170,2012-10-17 04:56:00
9:16 PM,42.8,35.6,76,29.89,10.0,SSE,5.8,-,N/A,,Overcast,160,2012-10-17 05:16:00
9:36 PM,42.8,35.6,76,29.90,10.0,South,6.9,-,N/A,,Overcast,180,2012-10-17 05:36:00
9:56 PM,42.8,35.6,76,29.92,10.0,South,5.8,-,N/A,,Overcast,180,2012-10-17 05:56:00
10:16 PM,42.8,35.6,76,29.92,10.0,South,4.6,-,N/A,,Overcast,180,2012-10-17 06:16:00
10:36 PM,42.8,33.8,70,29.93,10.0,South,6.9,-,N/A,,Overcast,180,2012-10-17 06:36:00
10:56 PM,42.8,35.6,76,29.94,10.0,South,4.6,-,N/A,,Mostly Cloudy,180,2012-10-17 06:56:00
11:16 PM,42.8,35.6,76,29.95,10.0,South,3.5,-,N/A,,Mostly Cloudy,170,2012-10-17 07:16:00
11:36 PM,42.8,33.8,70,29.96,10.0,Calm,Calm,-,N/A,,Mostly Cloudy,0,2012-10-17 07:36:00
11:56 PM,42.8,33.8,70,29.97,10.0,SE,4.6,-,N/A,,Overcast,140,2012-10-17 07:56:00